Location: Bletchingley
(51.2333°N, 0.1000°W)
Time: 13:27:15
(UTC+00:00)

Cosmos 1092 Rocket - Pass Details

Date: 18 September 2020
Orbit: 954 x 995 km, 82.9° (Epoch: 22 October)

Event Time Altitude Azimuth Distance (km) Brightness Sun altitude
Rises 19:47:33 0° 351° (N) 3,646 7.5 -16.1°
Reaches altitude 10° 19:50:06 10° 355° (N) 2,697 6.7 -16.5°
Maximum altitude 19:56:12 61° 76° (ENE) 1,080 4.0 -17.3°
Enters shadow 20:00:16 22° 151° (SSE) 1,971 5.1 -17.9°
